[[{"header":{"parameterUnit":"m.s-1","parameterCategory":2,"la1":30.2992,"la2":30.254,"lo1":-89.0895,"lo2":-89.0443,"dy":0.0025,"dx":0.0025,"nx":19,"ny":19,"refTime":"2026-03-30T03:00:00:Z","depth":"0","parameterNumber":2,"parameterNumberName":"U-component_of_CURRENTS"},"data":[0,0,0,0.204,0.2042,0.2139,0.214,0.2204,0.2204,0,0,0,0,0,0,0,0,0,0,0,0.2009,0.201,0.204,0.2042,0.2139,0.214,0.2204,0.2204,0,0,0,0,0,0,0,0,0,0,0,0.2009,0.201,0.2011,0.2042,0.2139,0.214,0.2204,0.2145,0,0,0,0,0,0,0,0,0,0,0.2059,0.2023,0.2009,0.2011,0.2043,0.2139,0.214,0.2143,0.2149,0.2142,0,0.2164,0,0.2183,0.2207,0.2207,0,0,0,0.2043,0.2018,0.206,0.2011,0.2044,0.2139,0.2096,0.2147,0.2153,0.215,0.2165,0.2168,0.2184,0.2207,0.2208,0.2233,0.2233,0,0,0.2038,0.201,0.2055,0.2064,0.2076,0.2092,0.2099,0.2152,0.215,0.2165,0.217,0.2185,0.2208,0.2208,0.2233,0.2233,0,0,0,0.2022,0.2006,0.2047,0.2061,0.2082,0.2095,0.2102,0.2148,0.2167,0.217,0.2186,0.2208,0.2208,0.2233,0.2233,0.2229,0,0,0,0.2018,0.1997,0.2045,0.2027,0.2082,0.212,0.2097,0.2163,0.217,0.2186,0.2208,0.2209,0.2233,0.2233,0.2229,0.2257,0,0,0,0.2003,0.1995,0.2012,0.2026,0.2069,0.2121,0.2142,0.2166,0.2179,0.2207,0.2209,0.2233,0.2233,0.2229,0.2257,0.229,0,0,0,0.1963,0.1996,0.2012,0.2038,0.2069,0.2129,0.2142,0.2182,0.2207,0.2208,0.2233,0.2233,0.2229,0.2256,0.229,0.227,0.2273,0,0,0.1986,0.1998,0.2012,0.2028,0.2071,0.2116,0.2155,0.2191,0.22,0.2212,0.2213,0.2229,0.2257,0.229,0.2265,0.2268,0,0,0,0.2005,0.2015,0.203,0.2053,0.21,0.2144,0.2186,0.2197,0.2216,0.2215,0.2228,0.2247,0.2268,0.2254,0.2256,0.2102,0.2233,0.2233,0.2233,0.1974,0.2001,0.2021,0.2064,0.2099,0.2162,0.22,0.2222,0.222,0.2221,0.2241,0.2265,0.2247,0.2249,0.2089,0.2223,0.2223,0.2223,0.2223,0.1978,0.1982,0.2008,0.2043,0.2088,0.2127,0.2199,0.2217,0.2265,0.224,0.226,0.2247,0.2252,0.208,0.2223,0.2223,0.2223,0.2223,0.2223,0.1937,0.1951,0.1971,0.2004,0.2043,0.2106,0.2158,0.2216,0.2269,0.2301,0.2297,0.2296,0.2151,0.2303,0.2304,0.2304,0.2304,0.2304,0.2304,0.1892,0.1921,0.1927,0.1966,0.1977,0.2025,0.2139,0.2201,0.2288,0.2318,0.2317,0.2134,0.2291,0.2294,0.2308,0.2308,0.2307,0.2307,0.2307,0.1874,0.1876,0.1878,0.1885,0.1914,0.1921,0.2052,0.2194,0.2286,0.2335,0.2146,0.233,0.2342,0.2339,0.2344,0.2371,0.2371,0.2371,0.2371,0.1846,0.1851,0.1834,0.1825,0.1836,0.1873,0.1914,0.2021,0.2102,0.2073,0.2084,0.2013,0.2017,0.2006,0.2011,0.2007,0.1948,0.1947,0.1946,0.1839,0.1826,0.1798,0.1782,0.1791,0.1806,0.1769,0.1721,0.1834,0.1912,0.1871,0.1889,0.1766,0.1786,0.1755,0.1774,0.1764,0,0]},{"header":{"parameterUnit":"m.s-1","parameterCategory":2,"la1":30.2992,"la2":30.254,"lo1":-89.0895,"lo2":-89.0443,"dy":0.0025,"dx":0.0025,"nx":19,"ny":19,"refTime":"2026-03-30T03:00:00:Z","depth":"0","parameterNumber":3,"parameterNumberName":"V-component_of_CURRENTS"},"data":[0,0,0,-0.0133,-0.0135,-0.0194,-0.0194,-0.0263,-0.0264,0,0,0,0,0,0,0,0,0,0,0,-0.0105,-0.0105,-0.0133,-0.0135,-0.0193,-0.0194,-0.0263,-0.0264,0,0,0,0,0,0,0,0,0,0,0,-0.0105,-0.0105,-0.0106,-0.0135,-0.0193,-0.0194,-0.0263,-0.0218,0,0,0,0,0,0,0,0,0,0,-0.0161,-0.0121,-0.0105,-0.0106,-0.0136,-0.0193,-0.0194,-0.0216,-0.0221,-0.0238,0,-0.0249,0,-0.0266,-0.0269,-0.0269,0,0,0,-0.0126,-0.0117,-0.0154,-0.0106,-0.0136,-0.0193,-0.0165,-0.0218,-0.0224,-0.0244,-0.025,-0.0253,-0.0267,-0.027,-0.027,-0.032,-0.032,0,0,-0.0123,-0.0096,-0.015,-0.0157,-0.0155,-0.0163,-0.0167,-0.0222,-0.0216,-0.025,-0.0255,-0.0268,-0.027,-0.0271,-0.032,-0.032,0,0,0,-0.012,-0.0093,-0.0128,-0.0154,-0.017,-0.0165,-0.0169,-0.0213,-0.0231,-0.0255,-0.0269,-0.0271,-0.0272,-0.032,-0.032,-0.0232,0,0,0,-0.0117,-0.0093,-0.0127,-0.0108,-0.0169,-0.0189,-0.0159,-0.0227,-0.0234,-0.0269,-0.0271,-0.0272,-0.032,-0.032,-0.0235,-0.0177,0,0,0,-0.0102,-0.009,-0.0103,-0.0107,-0.014,-0.0189,-0.0209,-0.0229,-0.0243,-0.0269,-0.0273,-0.032,-0.032,-0.0237,-0.0182,-0.0092,0,0,0,-0.0064,-0.0068,-0.0102,-0.01,-0.0139,-0.0167,-0.0208,-0.0225,-0.0242,-0.0271,-0.032,-0.032,-0.0237,-0.0185,-0.0096,0.0038,0.0067,0,0,-0.0049,-0.0065,-0.0063,-0.0096,-0.01,-0.0158,-0.0155,-0.0197,-0.0248,-0.0301,-0.0302,-0.0234,-0.0182,-0.0093,0.0044,0.0074,0,0,0,-0.0045,-0.0037,-0.0045,-0.0053,-0.0094,-0.0109,-0.0162,-0.0182,-0.0218,-0.0262,-0.0257,-0.0227,-0.0173,-0.0101,-0.0079,-0.0126,-0.032,-0.032,-0.032,0.0045,0.0015,0.0026,-0.001,-0.0028,-0.0076,-0.0082,-0.0126,-0.0184,-0.0187,-0.0173,-0.0068,0.0006,0.0026,-0.0026,-0.0204,-0.0204,-0.0203,-0.0203,0.0103,0.0111,0.0083,0.0079,0.0042,0.0032,-0.0014,-0.0042,-0.0029,-0.0111,-0.0062,-0.0035,0.0057,-0.0008,-0.0198,-0.0199,-0.0199,-0.02,-0.02,0.0179,0.017,0.0164,0.0154,0.0146,0.0096,0.0132,0.0089,0.0063,0.0099,0.0188,0.0188,0.0151,0.013,0.0131,0.0131,0.0132,0.0132,0.0133,0.0248,0.0235,0.0244,0.0225,0.0221,0.0226,0.0223,0.0267,0.033,0.0311,0.0312,0.0186,0.0034,0.0044,0.0143,0.0141,0.014,0.0139,0.0138,0.0304,0.0301,0.0321,0.0322,0.0323,0.0392,0.0399,0.0556,0.0593,0.067,0.0502,0.0427,0.0424,0.0405,0.0422,0.0614,0.0614,0.0614,0.0614,0.0347,0.0344,0.0377,0.0392,0.0429,0.0467,0.0685,0.0803,0.0802,0.0768,0.0667,0.0596,0.0579,0.0577,0.0554,0.057,0.0795,0.0795,0.0795,0.037,0.0384,0.0412,0.0429,0.0465,0.0588,0.0818,0.1,0.0934,0.0788,0.0577,0.057,0.0441,0.0418,0.0387,0.0359,0.0374,0,0]}],[{"header":{"parameterUnit":"m.s-1","parameterCategory":2,"la1":30.2992,"la2":30.254,"lo1":-89.0895,"lo2":-89.0443,"dy":0.0025,"dx":0.0025,"nx":19,"ny":19,"refTime":"2026-03-30T03:00:00:Z","depth":"2","parameterNumber":2,"parameterNumberName":"U-component_of_CURRENTS"},"data":[0,0,0,0.2066,0.2072,0.2279,0.228,0.2337,0.2338,0,0,0,0,0,0,0,0,0,0,0,0.1982,0.1984,0.2066,0.2072,0.2279,0.228,0.2337,0.2338,0,0,0,0,0,0,0,0,0,0,0,0.1981,0.1984,0.1986,0.2073,0.2279,0.228,0.2337,0.2224,0,0,0,0,0,0,0,0,0,0,0.2046,0.1994,0.1983,0.1986,0.2075,0.2279,0.228,0.2221,0.2231,0.2195,0,0.2254,0,0.2314,0.234,0.234,0,0,0,0.2039,0.1986,0.2067,0.1987,0.2077,0.2279,0.2176,0.2228,0.224,0.2208,0.2256,0.226,0.2315,0.234,0.234,0.2349,0.2349,0,0,0.2028,0.1985,0.206,0.2075,0.2163,0.217,0.2183,0.2237,0.2242,0.2256,0.2263,0.2316,0.234,0.234,0.2349,0.2349,0,0,0,0.2017,0.1977,0.206,0.2071,0.2136,0.2177,0.2192,0.2239,0.2276,0.2264,0.2317,0.234,0.2341,0.2349,0.2349,0.2341,0,0,0,0.2009,0.1974,0.2055,0.2026,0.2137,0.2216,0.2192,0.2272,0.2281,0.2317,0.234,0.2341,0.2349,0.2349,0.2341,0.237,0,0,0,0.1967,0.1969,0.2009,0.2025,0.2135,0.2218,0.2256,0.2275,0.2314,0.234,0.2341,0.2349,0.2349,0.2342,0.2369,0.2403,0,0,0,0.1891,0.1993,0.2008,0.2095,0.2134,0.2236,0.2257,0.231,0.2331,0.2341,0.2349,0.2349,0.2342,0.2369,0.2402,0.2289,0.2283,0,0,0.1983,0.2002,0.2044,0.2066,0.2147,0.2203,0.2259,0.2295,0.2308,0.2311,0.2314,0.2341,0.2369,0.2403,0.2268,0.2263,0,0,0,0.2046,0.2068,0.2095,0.2138,0.2209,0.225,0.23,0.2311,0.2325,0.2332,0.2336,0.2355,0.2376,0.2305,0.2301,0.2347,0.2347,0.2347,0.2347,0.2017,0.2057,0.2105,0.2157,0.2204,0.2269,0.2304,0.2323,0.2321,0.2318,0.2343,0.2359,0.2281,0.2277,0.232,0.232,0.232,0.232,0.232,0.2057,0.2072,0.2085,0.2157,0.2185,0.2224,0.2292,0.231,0.2357,0.2334,0.2354,0.2293,0.2272,0.2319,0.2319,0.2319,0.2319,0.2319,0.2319,0.1992,0.2025,0.2061,0.2115,0.2142,0.2198,0.2246,0.2304,0.2358,0.2389,0.2324,0.2322,0.2384,0.2391,0.2392,0.2392,0.2392,0.2392,0.2392,0.1928,0.1984,0.2017,0.2075,0.2076,0.2115,0.2225,0.2287,0.2334,0.2333,0.2331,0.2385,0.2382,0.239,0.2396,0.2396,0.2395,0.2395,0.2394,0.1891,0.1944,0.1976,0.199,0.2007,0.1996,0.2128,0.2225,0.2308,0.2326,0.2301,0.2302,0.2308,0.2309,0.2314,0.2302,0.2302,0.2302,0.2302,0.1853,0.1888,0.1932,0.1934,0.1929,0.1943,0.192,0.1879,0.1994,0.1946,0.1961,0.1873,0.1886,0.1864,0.1875,0.1871,0.1743,0.1741,0.174,0.1818,0.1852,0.185,0.1893,0.1884,0.1862,0.171,0.1438,0.1462,0.1713,0.1806,0.2276,0.2186,0.2191,0.2189,0.2194,0.22,0,0]},{"header":{"parameterUnit":"m.s-1","parameterCategory":2,"la1":30.2992,"la2":30.254,"lo1":-89.0895,"lo2":-89.0443,"dy":0.0025,"dx":0.0025,"nx":19,"ny":19,"refTime":"2026-03-30T03:00:00:Z","depth":"2","parameterNumber":3,"parameterNumberName":"V-component_of_CURRENTS"},"data":[0,0,0,-0.0151,-0.0154,-0.0255,-0.0256,-0.0319,-0.032,0,0,0,0,0,0,0,0,0,0,0,-0.0105,-0.0106,-0.0151,-0.0154,-0.0255,-0.0256,-0.0319,-0.032,0,0,0,0,0,0,0,0,0,0,0,-0.0105,-0.0106,-0.0107,-0.0155,-0.0255,-0.0256,-0.0319,-0.0254,0,0,0,0,0,0,0,0,0,0,-0.0162,-0.0115,-0.0105,-0.0107,-0.0156,-0.0255,-0.0256,-0.0252,-0.0258,-0.026,0,-0.0286,0,-0.0318,-0.0324,-0.0324,0,0,0,-0.0135,-0.0109,-0.0164,-0.0107,-0.0157,-0.0255,-0.0204,-0.0256,-0.0263,-0.0269,-0.0287,-0.0291,-0.0319,-0.0324,-0.0325,-0.0355,-0.0355,0,0,-0.013,-0.0094,-0.0159,-0.0169,-0.0196,-0.0201,-0.0208,-0.0261,-0.0256,-0.0288,-0.0293,-0.032,-0.0325,-0.0325,-0.0355,-0.0355,0,0,0,-0.0126,-0.009,-0.0143,-0.0165,-0.0197,-0.0205,-0.0212,-0.0253,-0.0279,-0.0294,-0.032,-0.0325,-0.0326,-0.0355,-0.0355,-0.0268,0,0,0,-0.0122,-0.009,-0.0141,-0.0116,-0.0197,-0.0231,-0.0202,-0.0275,-0.0283,-0.032,-0.0325,-0.0327,-0.0355,-0.0355,-0.0271,-0.0216,0,0,0,-0.0098,-0.0087,-0.0109,-0.0115,-0.0173,-0.0232,-0.0259,-0.0277,-0.03,-0.0324,-0.0327,-0.0355,-0.0355,-0.0273,-0.0221,-0.0133,0,0,0,-0.0043,-0.0071,-0.0108,-0.0125,-0.0172,-0.0212,-0.0259,-0.0277,-0.0292,-0.0326,-0.0355,-0.0355,-0.0274,-0.0224,-0.0137,-0.002,0.0008,0,0,-0.0049,-0.007,-0.0078,-0.0114,-0.0131,-0.0196,-0.0195,-0.0237,-0.0288,-0.033,-0.0332,-0.027,-0.0221,-0.0134,0.0003,0.0032,0,0,0,-0.0059,-0.0058,-0.0068,-0.0085,-0.0132,-0.0147,-0.0202,-0.0221,-0.0253,-0.0303,-0.0286,-0.0258,-0.0205,-0.0144,-0.0123,-0.0353,-0.0353,-0.0353,-0.0353,0.0022,-0.0009,-0.0005,-0.0042,-0.0061,-0.0108,-0.0114,-0.0155,-0.0211,-0.021,-0.02,-0.0091,-0.0027,-0.0009,-0.0225,-0.0224,-0.0224,-0.0224,-0.0224,0.0066,0.0071,0.0054,0.0041,0.0012,0.0003,-0.0037,-0.0065,-0.0051,-0.0131,-0.0084,-0.0072,0.0021,-0.0217,-0.0218,-0.0219,-0.022,-0.022,-0.0221,0.014,0.0128,0.0122,0.0114,0.0112,0.0068,0.0107,0.0065,0.004,0.0075,0.0151,0.0151,-0.0005,0.0104,0.0105,0.0106,0.0106,0.0107,0.0107,0.0205,0.0192,0.0201,0.0184,0.0184,0.0194,0.0195,0.0238,0.0294,0.0271,0.0272,0.002,0.001,0.0014,0.0117,0.0115,0.0114,0.0113,0.0112,0.0268,0.0254,0.0273,0.0277,0.0287,0.036,0.037,0.052,0.0551,0.0624,0.0389,0.0379,0.0373,0.0355,0.0366,0.0555,0.0555,0.0555,0.0555,0.0313,0.0305,0.0332,0.0351,0.0393,0.0436,0.0641,0.0708,0.0705,0.0636,0.0631,0.056,0.0543,0.0539,0.0516,0.0527,0.0758,0.0758,0.0758,0.0356,0.0355,0.0384,0.0389,0.0431,0.0558,0.0762,0.0816,0.0733,0.0756,0.0565,0.0589,0.0469,0.0447,0.0422,0.0394,0.0404,0,0]}],[{"header":{"parameterUnit":"m.s-1","parameterCategory":2,"la1":30.2992,"la2":30.254,"lo1":-89.0895,"lo2":-89.0443,"dy":0.0025,"dx":0.0025,"nx":19,"ny":19,"refTime":"2026-03-30T03:00:00:Z","depth":"4","parameterNumber":2,"parameterNumberName":"U-component_of_CURRENTS"},"data":[0,0,0,0.0717,0.0719,0.0783,0.0784,0.0833,0.0834,0,0,0,0,0,0,0,0,0,0,0,0.0673,0.0673,0.0717,0.0719,0.0783,0.0784,0.0833,0.0834,0,0,0,0,0,0,0,0,0,0,0,0.0673,0.0673,0.0672,0.0719,0.0783,0.0784,0.0833,0.0794,0,0,0,0,0,0,0,0,0,0,0.0735,0.0746,0.0673,0.0672,0.0719,0.0783,0.0784,0.0792,0.0796,0.0793,0,0.0785,0,0.0818,0.0836,0.0836,0,0,0,0.0723,0.0744,0.0714,0.0672,0.072,0.0783,0.0755,0.0795,0.0799,0.0799,0.0786,0.0789,0.0818,0.0836,0.0836,0.0939,0.094,0,0,0.0719,0.0735,0.0711,0.0716,0.0712,0.0753,0.0757,0.0798,0.0819,0.0786,0.079,0.0819,0.0836,0.0837,0.0939,0.094,0,0,0,0.0706,0.0733,0.0705,0.0713,0.0732,0.0755,0.076,0.0817,0.0793,0.0791,0.082,0.0837,0.0837,0.0938,0.0939,0.0952,0,0,0,0.0704,0.0724,0.0702,0.072,0.073,0.0794,0.0779,0.079,0.0797,0.082,0.0837,0.0837,0.0937,0.0938,0.0949,0.0899,0,0,0,0.0674,0.0725,0.0712,0.0719,0.0743,0.0793,0.0776,0.0793,0.0814,0.0836,0.0837,0.0936,0.0938,0.0947,0.0898,0.0992,0,0,0,0.0715,0.0645,0.0712,0.0688,0.0742,0.0761,0.0776,0.0814,0.0832,0.0837,0.0937,0.0939,0.0946,0.0897,0.099,0.0807,0,0,0,0.0626,0.0637,0.0624,0.0683,0.0716,0.0753,0.0785,0.0814,0.0869,0.0919,0.0922,0.095,0.0898,0.0991,0.0933,0,0,0,0,0.0597,0.0596,0.0618,0.0675,0.071,0.0789,0.0816,0.0846,0.0941,0.0891,0.099,0.0955,0.1015,0.0904,0.0949,0.0949,0.0949,0.0948,0.0948,0.0623,0.0628,0.0635,0.0667,0.071,0.0803,0.0841,0.0902,0.0933,0.1009,0.0998,0.1109,0.0996,0.1064,0.1064,0.1064,0.1064,0.1064,0.1064,0.0596,0.0587,0.0659,0.0653,0.0752,0.0807,0.0892,0.0938,0.1024,0.1044,0.1105,0.0961,0.1067,0.1066,0.1066,0.1065,0.1065,0.1065,0.1065,0.0603,0.0573,0.0609,0.0656,0.0744,0.0832,0.0881,0.0972,0.1056,0.1078,0.1053,0.1134,0.11,0.1172,0.1172,0.1172,0.1172,0.1172,0.1172,0.06,0.06,0.0604,0.0661,0.0688,0.0789,0.0918,0.0955,0.1064,0.1021,0.1115,0.1146,0.1142,0.1108,0.1176,0.1175,0.1175,0.1175,0.1174,0.0564,0.0575,0.0535,0.0546,0.0613,0.0664,0.082,0.0911,0.0966,0.0969,0.1019,0.1026,0.1007,0.1008,0.0967,0.0996,0.0993,0.0991,0,0.0556,0.0558,0.0493,0.0446,0.0457,0.0559,0.0595,0.0696,0.0822,0.0805,0.0939,0.0992,0.0997,0.0969,0.0967,0.0915,0,0,0,0.0594,0.053,0.0462,0.0381,0.0361,0.0461,0.0607,0.0618,0.0822,0.0807,0.0939,0.0953,0.1011,0.1186,0.1174,0.117,0.1115,0,0]},{"header":{"parameterUnit":"m.s-1","parameterCategory":2,"la1":30.2992,"la2":30.254,"lo1":-89.0895,"lo2":-89.0443,"dy":0.0025,"dx":0.0025,"nx":19,"ny":19,"refTime":"2026-03-30T03:00:00:Z","depth":"4","parameterNumber":3,"parameterNumberName":"V-component_of_CURRENTS"},"data":[0,0,0,0.0299,0.0301,0.0363,0.0364,0.0457,0.0458,0,0,0,0,0,0,0,0,0,0,0,0.0296,0.0297,0.0299,0.0301,0.0363,0.0364,0.0456,0.0458,0,0,0,0,0,0,0,0,0,0,0,0.0296,0.0297,0.0298,0.0301,0.0363,0.0364,0.0456,0.0406,0,0,0,0,0,0,0,0,0,0,0.0343,0.0317,0.0297,0.0298,0.0301,0.0363,0.0364,0.0403,0.0409,0.0432,0,0.046,0,0.0455,0.0464,0.0464,0,0,0,0.03,0.0312,0.0349,0.0298,0.0302,0.0363,0.0335,0.0406,0.0413,0.044,0.0461,0.0464,0.0456,0.0465,0.0465,0.0584,0.0585,0,0,0.0297,0.0285,0.0345,0.0354,0.0343,0.0333,0.0337,0.041,0.0416,0.0461,0.0466,0.0458,0.0465,0.0466,0.0584,0.0585,0,0,0,0.0287,0.0282,0.0317,0.035,0.0357,0.0335,0.0339,0.0412,0.043,0.0467,0.0459,0.0466,0.0467,0.0583,0.0584,0.0612,0,0,0,0.0285,0.0277,0.0316,0.0305,0.0356,0.0377,0.034,0.0426,0.0433,0.0458,0.0466,0.0468,0.0583,0.0584,0.061,0.0603,0,0,0,0.0289,0.0276,0.0296,0.0305,0.0333,0.0376,0.0397,0.0427,0.0428,0.0465,0.0468,0.0582,0.0583,0.0608,0.06,0.059,0,0,0,0.0257,0.0307,0.0296,0.0362,0.0332,0.0415,0.0396,0.045,0.0487,0.0467,0.0583,0.0584,0.0607,0.0599,0.0589,0.0532,0,0,0,0.0305,0.0312,0.0358,0.035,0.0418,0.0405,0.0475,0.0508,0.0512,0.0558,0.0561,0.0611,0.06,0.059,0.0612,0,0,0,0,0.0365,0.0398,0.042,0.0458,0.0498,0.0509,0.0539,0.0551,0.0589,0.054,0.063,0.0623,0.0615,0.0581,0.0591,0.059,0.059,0.059,0.059,0.0376,0.0422,0.0481,0.0533,0.0573,0.0596,0.0614,0.0634,0.0645,0.0664,0.0661,0.0692,0.0661,0.0689,0.0689,0.0689,0.0689,0.069,0.069,0.044,0.0478,0.0519,0.0598,0.0611,0.067,0.069,0.069,0.0705,0.0708,0.07,0.0633,0.0693,0.0692,0.0692,0.0691,0.0691,0.0691,0.0691,0.0432,0.0456,0.0518,0.0607,0.0664,0.0702,0.0729,0.0739,0.0723,0.072,0.0669,0.0699,0.0676,0.0719,0.0719,0.0719,0.0719,0.0719,0.0719,0.039,0.0452,0.0525,0.0623,0.0673,0.0724,0.0754,0.074,0.0724,0.0682,0.0723,0.0701,0.07,0.0678,0.0718,0.0718,0.0718,0.0719,0.0719,0.0407,0.0434,0.0522,0.0587,0.07,0.073,0.0768,0.0709,0.0682,0.063,0.0654,0.0658,0.063,0.0631,0.0605,0.0625,0.0625,0.0624,0,0.039,0.0423,0.0521,0.0605,0.0669,0.0726,0.0692,0.0668,0.0623,0.0616,0.0667,0.0697,0.0698,0.0671,0.067,0.0642,0,0,0,0.04,0.0422,0.0478,0.0576,0.0657,0.0654,0.0674,0.0637,0.0652,0.0586,0.0608,0.0612,0.0684,0.0716,0.0682,0.0681,0.0643,0,0]}]]